Memphis, TN

5:16 PM CDT on April 21, 2018 (GMT -0500)
Memphis International

Weather History for KMEM - March, 2014

Change the Weather History Date:

Wednesday, March 12, 2014

  Actual Average Record
Temperature  
Mean Temperature 54 °F 53 °F  
Max Temperature 65 °F 63 °F 84 °F (1989)
Min Temperature 43 °F 43 °F 18 °F (1998)
Degree Days  
Heating Degree Days 11 13  
Month to date heating degree days 236 170  
Since 1 July heating degree days 3062 2620  
Cooling Degree Days 0 0  
Month to date cooling degree days 0 0  
Year to date cooling degree days 0 3  
Moisture  
Dew Point 39 °F    
Average Humidity 57    
Maximum Humidity 84    
Minimum Humidity 29    
Precipitation  
Precipitation 0.00 in 0.16 in 4.92 in (1975)
Month to date precipitation 2.40 1.90  
Year to date precipitation 10.52 10.27  
Snow  
Snow 0.00 in 0.00 in 0.30 in (1896)
Month to date snowfall 0.5 0.2  
Since 1 July snowfall 0.8 3.6  
Snow Depth 0.00 in    
Sea Level Pressure  
Sea Level Pressure 29.85 in    
Wind  
Wind Speed 15 mph (NW)    
Max Wind Speed 33 mph    
Max Gust Speed 44 mph    
Visibility 10 miles    
Events      
T = Trace of Precipitation, MM = Missing Value Source: NWS Daily Summary

Daily Weather History Graph

Daily Weather History Graph

Search for Another Location

Airport or City:

Astronomy

Mar. 12, 2014 Rise Set
Actual Time 7:14 AM CDT 7:05 PM CDT
Civil Twilight 6:49 AM CDT 7:30 PM CDT
Nautical Twilight 6:20 AM CDT 7:59 PM CDT
Astronomical Twilight 5:50 AM CDT 8:29 PM CDT
Moon 3:42 PM CDT (3/12) 4:39 AM CDT (3/12)
Length of Visible Light 12h 40m
Length of Day
11h 50m
Waxing Gibbous, 85% of the Moon is Illuminated
Mar 12
Waxing Gibbous
Mar 16
Full
Mar 23
Last Quarter
Mar 30
New
Apr 7
First Quarter

Hourly Weather History & Observations

Time (CDT) Temp. Windchill Dew Point Humidity Pressure Visibility Wind Dir Wind Speed Gust Speed Precip Events Conditions
12:18 AM 64.4 °F - 60.8 °F 88% 29.61 in 10.0 mi SSW 10.4 mph 25.3 mph N/A   Overcast
12:54 AM 64.0 °F - 59.0 °F 84% 29.59 in 10.0 mi SW 9.2 mph 20.7 mph N/A   Mostly Cloudy
1:26 AM 64.4 °F - 59.0 °F 83% 29.59 in 10.0 mi SW 13.8 mph 21.9 mph N/A   Mostly Cloudy
1:45 AM 64.4 °F - 59.0 °F 83% 29.58 in 10.0 mi SSW 15.0 mph 24.2 mph N/A   Scattered Clouds
1:54 AM 63.0 °F - 57.9 °F 84% 29.57 in 10.0 mi SW 13.8 mph 23.0 mph N/A   Scattered Clouds
1:59 AM 62.6 °F - 57.2 °F 82% 29.58 in 10.0 mi SW 15.0 mph 23.0 mph N/A   Mostly Cloudy
2:15 AM 62.6 °F - 57.2 °F 82% 29.58 in 10.0 mi SW 10.4 mph 19.6 mph N/A   Scattered Clouds
2:54 AM 63.0 °F - 57.9 °F 84% 29.56 in 10.0 mi SW 12.7 mph 20.7 mph N/A   Scattered Clouds
3:41 AM 62.6 °F - 57.2 °F 82% 29.56 in 10.0 mi SW 13.8 mph 25.3 mph N/A   Mostly Cloudy
3:54 AM 63.0 °F - 57.9 °F 84% 29.56 in 10.0 mi SW 17.3 mph 24.2 mph N/A   Overcast
4:54 AM 62.1 °F - 57.0 °F 84% 29.59 in 10.0 mi West 12.7 mph 21.9 mph N/A   Overcast
5:07 AM 62.6 °F - 57.2 °F 82% 29.60 in 10.0 mi West 15.0 mph 26.5 mph N/A   Overcast
5:54 AM 53.1 °F - 44.1 °F 71% 29.68 in 9.0 mi NW 26.5 mph 43.7 mph N/A   Overcast
6:54 AM 48.9 °F - 39.9 °F 71% 29.75 in 10.0 mi NNW 23.0 mph 33.4 mph N/A   Overcast
7:54 AM 48.0 °F - 37.0 °F 66% 29.81 in 10.0 mi NNW 23.0 mph 32.2 mph N/A   Overcast
8:46 AM 46.4 °F 38.3 °F 33.8 °F 62% 29.87 in 10.0 mi NNW 23.0 mph 39.1 mph N/A   Overcast
8:54 AM 46.9 °F - 33.1 °F 59% 29.87 in 10.0 mi NNW 18.4 mph 32.2 mph N/A   Overcast
9:54 AM 46.0 °F 38.5 °F 32.0 °F 58% 29.92 in 10.0 mi NNW 19.6 mph 29.9 mph N/A   Overcast
10:54 AM 50.0 °F - 32.0 °F 50% 29.96 in 10.0 mi North 25.3 mph 32.2 mph N/A   Overcast
11:54 AM 48.9 °F - 32.0 °F 52% 29.99 in 10.0 mi NNW 19.6 mph 29.9 mph N/A   Mostly Cloudy
12:54 PM 48.0 °F - 30.9 °F 52% 30.01 in 10.0 mi NW 19.6 mph 27.6 mph N/A   Mostly Cloudy
1:12 PM 51.8 °F - 28.4 °F 41% 30.02 in 10.0 mi NNW 19.6 mph 33.4 mph N/A   Mostly Cloudy
1:54 PM 50.0 °F - 28.0 °F 43% 30.02 in 10.0 mi NNW 18.4 mph 31.1 mph N/A   Overcast
2:54 PM 50.0 °F - 27.0 °F 41% 30.02 in 10.0 mi NNW 23.0 mph 29.9 mph N/A   Mostly Cloudy
3:54 PM 52.0 °F - 25.0 °F 35% 30.04 in 10.0 mi North 15.0 mph 26.5 mph N/A   Mostly Cloudy
4:54 PM 52.0 °F - 24.1 °F 34% 30.06 in 10.0 mi NNW 11.5 mph 20.7 mph N/A   Scattered Clouds
5:54 PM 52.0 °F - 21.0 °F 30% 30.06 in 10.0 mi NW 15.0 mph 24.2 mph N/A   Partly Cloudy
6:54 PM 50.0 °F - 19.9 °F 31% 30.09 in 10.0 mi NNW 10.4 mph - N/A   Partly Cloudy
7:54 PM 46.9 °F - 21.0 °F 36% 30.11 in 10.0 mi North 5.8 mph - N/A   Clear
8:54 PM 46.0 °F 43.9 °F 21.0 °F 37% 30.13 in 10.0 mi NNW 4.6 mph - N/A   Clear
9:54 PM 45.0 °F 42.6 °F 21.0 °F 39% 30.16 in 10.0 mi NNW 4.6 mph - N/A   Clear
10:54 PM 43.0 °F 38.8 °F 23.0 °F 45% 30.17 in 10.0 mi NNW 6.9 mph - N/A   Clear
11:54 PM 43.0 °F 40.3 °F 21.9 °F 43% 30.17 in 10.0 mi North 4.6 mph - N/A   Clear